Simultaneous Nadir Overpasses (SNOs) Predictions

Prediction of SNOs between METOP-A and NOAA-19 Satellite Orbit:

Table of predicted SNOs for the next 14.0 days since TLE Epoch: 3/27/2017
Index Date (METOP-A) Time (METOP-A) Lat,Lon (METOP-A) SZA (METOP-A ) Date (NOAA-19) Time (NOAA-19) Lat,Lon (NOAA-19) SZA (NOAA-19 ) Distance(km) Time Diff (sec)
1 04/05/2017 06:32:59 -77.44, -92.89 108.76 04/05/2017 06:31:52 -77.42, -96.10 108.82 77.89 67
2 04/05/2017 07:23:47 77.08, 72.88 70.85 04/05/2017 07:22:48 77.07, 72.78 70.84 2.81 59
3 04/05/2017 08:14:30 -77.04,-119.97 109.22 04/05/2017 08:13:45 -77.07,-119.94 109.19 3.43 45
4 04/05/2017 09:05:09 77.06, 47.47 70.80 04/05/2017 09:04:49 77.04, 47.40 70.78 2.73 20
5 04/05/2017 09:55:52 -77.02,-145.39 109.26 04/05/2017 09:55:46 -77.04,-145.32 109.24 2.80 6
6 04/05/2017 10:46:31 77.04, 22.05 70.76 04/05/2017 10:46:50 77.02, 22.02 70.73 3.29 19
7 04/05/2017 11:37:14 -77.00,-170.80 109.31 04/05/2017 11:37:47 -77.01,-170.70 109.29 2.83 33
8 04/05/2017 12:27:53 77.03, -3.37 70.71 04/05/2017 12:28:51 76.99, -3.36 70.68 4.25 58
9 04/05/2017 13:18:36 -76.98, 163.78 109.35 04/05/2017 13:19:48 -76.98, 163.92 109.35 3.49 72




NCC Satellite Simultaneous Nadir Overpasses (SNOs) Prediction Service
